Погода в Голотле

Россия / Республика Дагестан     42°29′10″N   46°44′04″E
темп.,
°C
ветер,
м/с
пор.,
м/с
влажн.,
%
обл.,
%
осадки,
мм/ч
давл.,
гПа
погр.,
м
25 июня, сб
сб2500:00+12зюз228264 0.1 101120
03:00+10зюз328336 0.1 101126
06:00+14з11770 0.0 101068
09:00+17всв32682 0.2 1010485
12:00+20всв336722 1.2 1008705
15:00+19св327534 4.8 1008539
18:00+17св2285100 2.1 1009314
21:00+14ююв1193100 3.1 101121
26 июня, вс
вс2600:00+12ююз3390100 0.3 101239
03:00+12зюз2283100 1.8 101113
06:00+14вюв017584 0.0 101071
09:00+16вюв2274100 0.1 1009500
12:00+19всв337299 1.4 1008685
15:00+18св3276100 6.0 1008640
18:00+16св2288100 1.8 1009304
21:00+14ю1192100 3.2 101118
27 июня, пн
пн2700:00+13сз1193100 0.5 101212
03:00+12зюз22880 0.5 101212
06:00+14зсз22795 0.0 101279
09:00+19св21650 0.0 1011617
12:00+21всв33625 0.0 10101181
15:00+20св337195 0.6 10111016
18:00+17св228151 0.7 1012476
21:00+14сз1193100 1.1 101412
28 июня, вт
вт2800:00+14зсз1190100 0.1 101311
03:00+13з228638 0.1 101213
06:00+15з11800 0.0 101181
09:00+19ссв22620 0.0 1010758
12:00+21св325817 0.1 10091235
15:00+20св326283 0.8 10101197
18:00+18ссв117284 0.6 1012187
21:00+14ссв118853 1.3 101438
29 июня, ср
ср2900:00+13ююв1191100 1.0 101515
03:00+12св009219 1.1 101411
06:00+14зюз018526 0.0 1015131
09:00+17всв227048 0.0 1014971
12:00+18св226486 0.2 10131209
15:00+16св1273100 0.4 1014374
18:00+16всв117680 0.1 1014131
21:00+14св1188100 0.1 101531